{"data":{"norad_id":60046,"intl_designator":"2024-112J","name":"STARLINK-11155 [DTC]","alt_names":[],"object_type":"PAYLOAD","status":"ACTIVE","operator":null,"country":"US","launch_date":"2024-06-08","launch_site_code":"AFWTR","launch_vehicle":null,"mission":null,"orbit_class":"UNKNOWN","rcs_meters":null,"size_class":null,"mass_kg":null,"dimensions":null,"purposes":["comms"],"wikipedia_slug":null,"has_3d_model":false,"image_url":null,"decayed_at":null,"tle_current":{"epoch":"2026-05-24T18:44:02.316768Z","epoch_age_seconds":100899,"freshness":"FRESH","line1":"1 60046U 24112J   26144.78058237  .00002182  00000+0  22856-4 0  9992","line2":"2 60046  53.1595 251.0431 0001107 101.2517 258.8626 15.69717333112936","mean_motion":15.69717333,"eccentricity":0.0001107,"inclination_deg":53.1595,"raan_deg":251.0431,"arg_perigee_deg":101.2517,"mean_anomaly_deg":258.8626,"bstar":2.2856e-5,"rev_number":11293,"period_min":91.736261664889,"perigee_km":358.95988706817,"apogee_km":360.45164545662,"semimajor_km":6737.8427662624,"source":"CELESTRAK","updated_at":"2026-05-25T13:38:19.153619Z"}}}